Regional Weather Roundup
Issued by NWS

Home | Current Version | Previous Version | Graphics & Text | Print | Product List | Glossary On
Versions: 1 2 3 4 5 6 7 8 9 10 11 12 13 14 15 16 17 18 19 20 21 22 23 24 25 26 27 28 29 30 31 32 33 34 35 36 37 38 39 40 41 42 43 44 45 46 47 48 49 50
000
ASUS43 KFSD 232010
RWRSD

WEATHER ROUNDUP FOR SOUTH DAKOTA
NATIONAL WEATHER SERVICE SIOUX FALLS SD
200 PM CST THU FEB 23 2017

NOTE: "FAIR" INDICATES FEW OR NO CLOUDS BELOW 12,000 FEET WITH NO
SIGNIFICANT WEATHER AND/OR OBSTRUCTIONS TO VISIBILITY.


SDZ001>005-009-010-012>017-232100-
NORTHWEST AND NORTH CENTRAL SOUTH DAKOTA

CITY           SKY/WX    TMP DP  RH WIND       PRES   REMARKS
BUFFALO          N/A     31  22  69 NE15      29.87S WCI  20
FAITH            N/A     30  24  78 NE16      29.92F WCI  19
MOBRIDGE       CLOUDY    34  24  67 NE14      29.95S WCI  25
$$

SDZ012>016-024>037-041>051-057-063-072>074-232100-
SOUTHWEST AND SOUTH CENTRAL SOUTH DAKOTA

CITY           SKY/WX    TMP DP  RH WIND       PRES   REMARKS
RAPID CTY ARPT LGT SNOW  26  23  88 NE12      29.87F VSB 1   WCI  16
PIERRE         CLOUDY    31  22  69 NE17      29.91F WCI  19
CUSTER         LGT SNOW  18  13  80 NE18      29.71F VSB 1   WCI   2
ELLSWORTH AFB  LGT SNOW  27  25  93 N8        29.87  FOG     WCI  18
PHILIP         FLURRIES  31  24  75 NE14      29.89F WCI  21
PINE RIDGE     LGT SNOW  26  22  84 NE15      29.77F VSB 3/4 WCI  14
SPEARFISH      LGT SNOW  25  23  93 E12       29.86S WCI  14
WINNER         SNOW      30  26  85 NE17      29.84F VSB 1/2 WCI  18
$$

SDZ004>011-016>023-039-040-232100-
NORTHEAST SOUTH DAKOTA

CITY           SKY/WX    TMP DP  RH WIND       PRES   REMARKS
ABERDEEN       CLOUDY    29  20  69 NE20      29.97F WCI  16
WATERTOWN      CLOUDY    28  21  75 NE21      29.90F WCI  15
BROOKINGS      PTSUNNY   30  24  78 NE18      29.86F WCI  18
SISSETON         N/A     29  24  82 NE20      29.98S WCI  16
$$

SDZ017-020-022-023-036>040-048>070-232100-
SOUTHEAST SOUTH DAKOTA

CITY           SKY/WX    TMP DP  RH WIND       PRES   REMARKS
SIOUX FALLS    LGT SNOW  31  28  89 NE20      29.84S VSB 3/4 WCI  19
HURON          CLOUDY    32  24  72 NE20      29.91F WCI  20
CHAMBERLAIN    LGT SNOW  32  30  94 NE9G16    29.88S WCI  24
MITCHELL       SNOW      31  29  92 NE16      29.89S VSB 1/4 WCI  20
YANKTON        CLOUDY    32  27  80 N21G29    29.79F WCI  20
$$

ABBREVIATIONS USED IN REMARKS
   TC - TEMPERATURE IN CELSIUS
  WCI - WIND CHILL INDEX
   HX - HEAT INDEX
  VSB - VISIBILITY





USA.gov is the U.S. government's official web portal to all federal, state and local government web resources and services.